Preview of NWS' New Version of Forecast
This preview is not operational and should not be used for support decisions.

Regional Weather Roundup (RWR)

Issued by National Weather Service (NWS)

                            
000
ASUS45 KBOI 240310
RWRID 

IDAHO REGIONAL WEATHER ROUNDUP
NATIONAL WEATHER SERVICE BOISE ID
900 PM MDT SUN JUN 23 2019

NOTE: "FAIR" INDICATES FEW OR NO CLOUDS BELOW 12000 FEET
WITH NO SIGNIFICANT WEATHER AND/OR OBSTRUCTIONS TO VISIBILITY

IDZ012-014-240400-
SOUTHWEST IDAHO

  
CITY           SKY/WX    TMP DP  RH WIND       PRES   REMARKS
BOISE          CLEAR     72  36  26 N13       29.94R                  
CALDWELL       CLEAR     70  42  36 NW7       29.94R                  
MOUNTAIN HOME  CLEAR     73  34  24 N14       29.93R                  
$$

IDZ016-017-240400-
SOUTHCENTRAL IDAHO

  
CITY           SKY/WX    TMP DP  RH WIND       PRES   REMARKS
BURLEY         CLEAR     66  32  28 W9        29.96R                  
JEROME         CLEAR     66  35  31 W12       29.96S                  
TWIN FALLS     CLEAR     65  35  33 NW7       29.98R                  
$$

IDZ019>023-240400-
SOUTHEAST IDAHO

  
CITY           SKY/WX    TMP DP  RH WIND       PRES   REMARKS
IDAHO FALLS    CLEAR     65  34  31 SW16G24   29.92S                  
POCATELLO      PTCLDY    66  38  35 SW15      29.95S                  
REXBURG        PTCLDY    65  35  33 SW9       29.91S                  
$$

IDZ006-010-011-018-031-032-240400-
CENTRAL IDAHO MOUNTAINS

  
CITY           SKY/WX    TMP DP  RH WIND       PRES   REMARKS
MCCALL         PTCLDY    57  38  48 NW10      30.02R                  
HAILEY         CLEAR     63  34  34 SW14G23   29.98R                  
STANLEY          N/A     56  28  34 VRB5      30.06R                  
SALMON         MOCLDY    63  43  48 N12       29.93R                  
CHALLIS        CLEAR     66  29  24 W10       29.93R                  
$$

IDZ002-004-006-007-026-240400-
NORTHERN IDAHO

  
CITY           SKY/WX    TMP DP  RH WIND       PRES   REMARKS
LEWISTON       MOCLDY    72  40  31 W5        29.93S                  
LOWELL           N/A     61  54  77 CALM      29.96R                  
COEUR D'ALENE  MOCLDY    65  45  48 S8        29.92F                  
MULLAN PASS    MOCLDY    45  38  76 VRB5      30.03S                  
$$